Time,TemperatureF,DewpointF,PressureIn,WindDirection,WindDirectionDegrees,WindSpeedMPH,WindSpeedGustMPH,Humidity,HourlyPrecipIn,Conditions,Clouds,dailyrainin,SoftwareType,DateUTC
2013-02-11 00:02:00,64.0,-99.9,29.89,NNE,32,16.0,19.0,-999,-99.99,,,-99.99,,2013-02-11 06:02:00,
2013-02-11 00:12:00,64.0,-99.9,29.89,NNE,28,17.0,19.0,-999,-99.99,,,-99.99,,2013-02-11 06:12:00,
2013-02-11 00:22:00,64.0,-99.9,29.89,NNE,19,17.0,19.0,-999,-99.99,,,-99.99,,2013-02-11 06:22:00,
2013-02-11 00:32:00,64.0,-99.9,29.90,NNE,13,17.0,20.0,-999,-99.99,,,-99.99,,2013-02-11 06:32:00,
2013-02-11 00:42:00,64.0,-99.9,29.90,NNE,15,20.0,22.0,-999,-99.99,,,-99.99,,2013-02-11 06:42:00,
2013-02-11 00:52:00,64.0,-99.9,29.90,North,11,21.0,23.0,-999,-99.99,,,-99.99,,2013-02-11 06:52:00,
2013-02-11 01:02:00,64.0,-99.9,29.90,NNE,13,20.0,23.0,-999,-99.99,,,-99.99,,2013-02-11 07:02:00,
2013-02-11 01:12:00,65.0,-99.9,29.90,NNE,16,20.0,23.0,-999,-99.99,,,-99.99,,2013-02-11 07:12:00,
2013-02-11 01:22:00,65.0,-99.9,29.90,NNE,20,20.0,23.0,-999,-99.99,,,-99.99,,2013-02-11 07:22:00,
2013-02-11 01:32:00,65.0,-99.9,29.90,NNE,16,20.0,23.0,-999,-99.99,,,-99.99,,2013-02-11 07:32:00,
2013-02-11 01:42:00,65.0,-99.9,29.90,NNE,15,20.0,23.0,-999,-99.99,,,-99.99,,2013-02-11 07:42:00,
2013-02-11 01:52:00,65.0,-99.9,29.91,North,10,20.0,22.0,-999,-99.99,,,-99.99,,2013-02-11 07:52:00,
2013-02-11 02:01:00,65.0,-99.9,29.91,North,3,21.0,23.0,-999,-99.99,,,-99.99,,2013-02-11 08:01:00,
2013-02-11 02:11:00,65.0,-99.9,29.91,North,355,14.0,22.0,-999,-99.99,,,-99.99,,2013-02-11 08:11:00,
2013-02-11 02:22:00,65.0,-99.9,29.91,North,358,18.0,21.0,-999,-99.99,,,-99.99,,2013-02-11 08:22:00,
2013-02-11 02:32:00,65.0,-99.9,29.91,North,357,15.0,20.0,-999,-99.99,,,-99.99,,2013-02-11 08:32:00,
2013-02-11 02:42:00,65.0,-99.9,29.91,North,1,16.0,19.0,-999,-99.99,,,-99.99,,2013-02-11 08:42:00,
2013-02-11 02:52:00,65.0,-99.9,29.91,North,5,16.0,20.0,-999,-99.99,,,-99.99,,2013-02-11 08:52:00,
2013-02-11 03:02:00,65.0,-99.9,29.90,North,7,18.0,22.0,-999,-99.99,,,-99.99,,2013-02-11 09:02:00,
2013-02-11 03:12:00,65.0,-99.9,29.89,North,6,19.0,22.0,-999,-99.99,,,-99.99,,2013-02-11 09:12:00,
2013-02-11 03:22:00,65.0,-99.9,29.89,NNE,15,18.0,21.0,-999,-99.99,,,-99.99,,2013-02-11 09:22:00,
2013-02-11 03:32:00,64.0,-99.9,29.88,NNE,22,17.0,21.0,-999,-99.99,,,-99.99,,2013-02-11 09:32:00,
2013-02-11 03:42:00,64.0,-99.9,29.87,NNE,23,19.0,22.0,-999,-99.99,,,-99.99,,2013-02-11 09:42:00,
2013-02-11 03:52:00,64.0,-99.9,29.86,NNE,28,18.0,22.0,-999,-99.99,,,-99.99,,2013-02-11 09:52:00,
2013-02-11 04:02:00,64.0,-99.9,29.86,NNE,26,20.0,23.0,-999,-99.99,,,-99.99,,2013-02-11 10:02:00,
2013-02-11 04:11:00,64.0,-99.9,29.86,NNE,17,20.0,24.0,-999,-99.99,,,-99.99,,2013-02-11 10:11:00,
2013-02-11 04:22:00,64.0,-99.9,29.86,NNE,20,22.0,24.0,-999,-99.99,,,-99.99,,2013-02-11 10:22:00,
2013-02-11 04:32:00,64.0,-99.9,29.86,NNE,16,23.0,26.0,-999,-99.99,,,-99.99,,2013-02-11 10:32:00,
2013-02-11 04:42:00,64.0,-99.9,29.87,NNE,13,21.0,24.0,-999,-99.99,,,-99.99,,2013-02-11 10:42:00,
2013-02-11 04:52:00,64.0,-99.9,29.88,NNE,13,22.0,25.0,-999,-99.99,,,-99.99,,2013-02-11 10:52:00,
2013-02-11 05:02:00,64.0,-99.9,29.88,NNE,12,22.0,25.0,-999,-99.99,,,-99.99,,2013-02-11 11:02:00,
2013-02-11 05:11:00,64.0,-99.9,29.88,NNE,17,22.0,25.0,-999,-99.99,,,-99.99,,2013-02-11 11:11:00,
2013-02-11 05:22:00,64.0,-99.9,29.88,NNE,15,23.0,28.0,-999,-99.99,,,-99.99,,2013-02-11 11:22:00,
2013-02-11 05:32:00,64.0,-99.9,29.88,NNE,19,22.0,27.0,-999,-99.99,,,-99.99,,2013-02-11 11:32:00,
2013-02-11 05:42:00,64.0,-99.9,29.88,NNE,19,25.0,28.0,-999,-99.99,,,-99.99,,2013-02-11 11:42:00,
2013-02-11 05:52:00,64.0,-99.9,29.89,NNE,16,21.0,24.0,-999,-99.99,,,-99.99,,2013-02-11 11:52:00,
2013-02-11 06:03:00,64.0,-99.9,29.89,NNE,19,23.0,26.0,-999,-99.99,,,-99.99,,2013-02-11 12:03:00,
2013-02-11 06:12:00,64.0,-99.9,29.89,NNE,25,20.0,26.0,-999,-99.99,,,-99.99,,2013-02-11 12:12:00,
2013-02-11 06:22:00,64.0,-99.9,29.89,NNE,13,21.0,23.0,-999,-99.99,,,-99.99,,2013-02-11 12:22:00,
2013-02-11 06:32:00,64.0,-99.9,29.89,NNE,13,26.0,28.0,-999,-99.99,,,-99.99,,2013-02-11 12:32:00,
2013-02-11 06:43:00,64.0,-99.9,29.90,NNE,13,23.0,26.0,-999,-99.99,,,-99.99,,2013-02-11 12:43:00,
2013-02-11 06:52:00,64.0,-99.9,29.90,NNE,12,26.0,29.0,-999,-99.99,,,-99.99,,2013-02-11 12:52:00,
2013-02-11 07:02:00,64.0,-99.9,29.90,NNE,18,27.0,30.0,-999,-99.99,,,-99.99,,2013-02-11 13:02:00,
2013-02-11 07:12:00,63.0,-99.9,29.90,NNE,20,26.0,30.0,-999,-99.99,,,-99.99,,2013-02-11 13:12:00,
2013-02-11 07:22:00,63.0,-99.9,29.90,NNE,23,21.0,29.0,-999,-99.99,,,-99.99,,2013-02-11 13:22:00,
2013-02-11 07:33:00,63.0,-99.9,29.90,NNE,24,24.0,27.0,-999,-99.99,,,-99.99,,2013-02-11 13:33:00,
2013-02-11 07:42:00,63.0,-99.9,29.90,NNE,27,23.0,27.0,-999,-99.99,,,-99.99,,2013-02-11 13:42:00,
2013-02-11 07:52:00,63.0,-99.9,29.91,NNE,24,22.0,28.0,-999,-99.99,,,-99.99,,2013-02-11 13:52:00,
2013-02-11 08:02:00,63.0,-99.9,29.91,NNE,22,23.0,26.0,-999,-99.99,,,-99.99,,2013-02-11 14:02:00,
2013-02-11 08:12:00,63.0,-99.9,29.91,NNE,24,23.0,27.0,-999,-99.99,,,-99.99,,2013-02-11 14:12:00,
2013-02-11 08:22:00,63.0,-99.9,29.91,NNE,29,24.0,28.0,-999,-99.99,,,-99.99,,2013-02-11 14:22:00,
2013-02-11 08:33:00,63.0,-99.9,29.90,NNE,33,23.0,25.0,-999,-99.99,,,-99.99,,2013-02-11 14:33:00,
2013-02-11 08:42:00,63.0,-99.9,29.91,NE,36,24.0,28.0,-999,-99.99,,,-99.99,,2013-02-11 14:42:00,
2013-02-11 08:53:00,63.0,-99.9,29.91,NE,41,23.0,26.0,-999,-99.99,,,-99.99,,2013-02-11 14:53:00,
2013-02-11 09:02:00,62.0,-99.9,29.91,NE,38,21.0,25.0,-999,-99.99,,,-99.99,,2013-02-11 15:02:00,
2013-02-11 09:12:00,62.0,-99.9,29.91,NE,40,25.0,27.0,-999,-99.99,,,-99.99,,2013-02-11 15:12:00,
2013-02-11 09:22:00,62.0,-99.9,29.92,NE,37,21.0,25.0,-999,-99.99,,,-99.99,,2013-02-11 15:22:00,
2013-02-11 09:32:00,62.0,-99.9,29.93,NE,35,18.0,22.0,-999,-99.99,,,-99.99,,2013-02-11 15:32:00,
2013-02-11 09:42:00,63.0,-99.9,29.93,NE,37,20.0,23.0,-999,-99.99,,,-99.99,,2013-02-11 15:42:00,
2013-02-11 09:52:00,63.0,-99.9,29.93,NE,35,22.0,25.0,-999,-99.99,,,-99.99,,2013-02-11 15:52:00,
2013-02-11 10:02:00,63.0,-99.9,29.94,NNE,32,19.0,25.0,-999,-99.99,,,-99.99,,2013-02-11 16:02:00,
2013-02-11 10:12:00,63.0,-99.9,29.94,NNE,29,21.0,24.0,-999,-99.99,,,-99.99,,2013-02-11 16:12:00,
2013-02-11 10:22:00,63.0,-99.9,29.95,NNE,24,20.0,23.0,-999,-99.99,,,-99.99,,2013-02-11 16:22:00,
2013-02-11 10:32:00,63.0,-99.9,29.96,NNE,28,20.0,23.0,-999,-99.99,,,-99.99,,2013-02-11 16:32:00,
2013-02-11 10:42:00,63.0,-99.9,29.96,NNE,26,20.0,23.0,-999,-99.99,,,-99.99,,2013-02-11 16:42:00,
2013-02-11 10:53:00,63.0,-99.9,29.96,NNE,32,19.0,23.0,-999,-99.99,,,-99.99,,2013-02-11 16:53:00,
2013-02-11 11:02:00,63.0,-99.9,29.95,NE,35,18.0,21.0,-999,-99.99,,,-99.99,,2013-02-11 17:02:00,
2013-02-11 11:12:00,63.0,-99.9,29.95,NE,34,18.0,21.0,-999,-99.99,,,-99.99,,2013-02-11 17:12:00,
2013-02-11 11:22:00,63.0,-99.9,29.95,NNE,31,19.0,23.0,-999,-99.99,,,-99.99,,2013-02-11 17:22:00,
2013-02-11 11:32:00,62.0,-99.9,29.94,NNE,28,22.0,25.0,-999,-99.99,,,-99.99,,2013-02-11 17:32:00,
2013-02-11 11:42:00,62.0,-99.9,29.95,NNE,26,23.0,27.0,-999,-99.99,,,-99.99,,2013-02-11 17:42:00,
2013-02-11 11:53:00,62.0,-99.9,29.94,NNE,32,20.0,25.0,-999,-99.99,,,-99.99,,2013-02-11 17:53:00,
2013-02-11 12:02:00,62.0,-99.9,29.94,NNE,29,19.0,25.0,-999,-99.99,,,-99.99,,2013-02-11 18:02:00,
2013-02-11 12:12:00,62.0,-99.9,29.94,NNE,27,21.0,25.0,-999,-99.99,,,-99.99,,2013-02-11 18:12:00,
2013-02-11 12:22:00,62.0,-99.9,29.94,NNE,28,22.0,26.0,-999,-99.99,,,-99.99,,2013-02-11 18:22:00,
2013-02-11 12:32:00,62.0,-99.9,29.93,NNE,28,21.0,24.0,-999,-99.99,,,-99.99,,2013-02-11 18:32:00,
2013-02-11 12:42:00,62.0,-99.9,29.93,NNE,33,19.0,25.0,-999,-99.99,,,-99.99,,2013-02-11 18:42:00,
2013-02-11 12:54:00,62.0,-99.9,29.92,NNE,32,23.0,27.0,-999,-99.99,,,-99.99,,2013-02-11 18:54:00,
2013-02-11 13:02:00,62.0,-99.9,29.92,NNE,27,22.0,26.0,-999,-99.99,,,-99.99,,2013-02-11 19:02:00,
2013-02-11 13:12:00,62.0,-99.9,29.92,NNE,33,22.0,26.0,-999,-99.99,,,-99.99,,2013-02-11 19:12:00,
2013-02-11 13:22:00,62.0,-99.9,29.91,NNE,29,22.0,25.0,-999,-99.99,,,-99.99,,2013-02-11 19:22:00,
2013-02-11 13:32:00,62.0,-99.9,29.91,NNE,28,20.0,23.0,-999,-99.99,,,-99.99,,2013-02-11 19:32:00,
2013-02-11 13:42:00,62.0,-99.9,29.91,NNE,24,21.0,23.0,-999,-99.99,,,-99.99,,2013-02-11 19:42:00,
2013-02-11 13:52:00,62.0,-99.9,29.91,NNE,28,23.0,25.0,-999,-99.99,,,-99.99,,2013-02-11 19:52:00,
2013-02-11 14:02:00,62.0,-99.9,29.90,NNE,26,21.0,26.0,-999,-99.99,,,-99.99,,2013-02-11 20:02:00,
2013-02-11 14:12:00,62.0,-99.9,29.89,NNE,26,21.0,24.0,-999,-99.99,,,-99.99,,2013-02-11 20:12:00,
2013-02-11 14:22:00,62.0,-99.9,29.89,NNE,24,21.0,24.0,-999,-99.99,,,-99.99,,2013-02-11 20:22:00,
2013-02-11 14:32:00,62.0,-99.9,29.88,NNE,26,22.0,26.0,-999,-99.99,,,-99.99,,2013-02-11 20:32:00,
2013-02-11 14:42:00,62.0,-99.9,29.88,NNE,25,23.0,25.0,-999,-99.99,,,-99.99,,2013-02-11 20:42:00,
2013-02-11 14:52:00,62.0,-99.9,29.87,NNE,25,23.0,26.0,-999,-99.99,,,-99.99,,2013-02-11 20:52:00,
2013-02-11 15:02:00,62.0,-99.9,29.88,NNE,23,22.0,25.0,-999,-99.99,,,-99.99,,2013-02-11 21:02:00,
2013-02-11 15:12:00,62.0,-99.9,29.87,NNE,24,23.0,25.0,-999,-99.99,,,-99.99,,2013-02-11 21:12:00,
2013-02-11 15:22:00,62.0,-99.9,29.87,NNE,25,23.0,27.0,-999,-99.99,,,-99.99,,2013-02-11 21:22:00,
2013-02-11 15:32:00,62.0,-99.9,29.86,NNE,19,24.0,26.0,-999,-99.99,,,-99.99,,2013-02-11 21:32:00,
2013-02-11 15:42:00,61.0,-99.9,29.86,NNE,14,22.0,25.0,-999,-99.99,,,-99.99,,2013-02-11 21:42:00,
2013-02-11 15:52:00,61.0,-99.9,29.86,North,8,22.0,25.0,-999,-99.99,,,-99.99,,2013-02-11 21:52:00,
2013-02-11 16:02:00,61.0,-99.9,29.86,North,7,21.0,26.0,-999,-99.99,,,-99.99,,2013-02-11 22:02:00,
2013-02-11 16:12:00,61.0,-99.9,29.86,North,6,23.0,26.0,-999,-99.99,,,-99.99,,2013-02-11 22:12:00,
2013-02-11 16:22:00,61.0,-99.9,29.85,North,6,23.0,27.0,-999,-99.99,,,-99.99,,2013-02-11 22:22:00,
2013-02-11 16:32:00,61.0,-99.9,29.85,North,8,23.0,28.0,-999,-99.99,,,-99.99,,2013-02-11 22:32:00,
2013-02-11 16:42:00,61.0,-99.9,29.85,NNE,14,25.0,28.0,-999,-99.99,,,-99.99,,2013-02-11 22:42:00,
2013-02-11 16:52:00,61.0,-99.9,29.85,North,11,26.0,30.0,-999,-99.99,,,-99.99,,2013-02-11 22:52:00,
2013-02-11 17:02:00,61.0,-99.9,29.85,NNE,16,27.0,31.0,-999,-99.99,,,-99.99,,2013-02-11 23:02:00,
2013-02-11 17:12:00,61.0,-99.9,29.85,NNE,18,28.0,31.0,-999,-99.99,,,-99.99,,2013-02-11 23:12:00,
2013-02-11 17:22:00,62.0,-99.9,29.85,NNE,18,28.0,31.0,-999,-99.99,,,-99.99,,2013-02-11 23:22:00,
2013-02-11 17:32:00,62.0,-99.9,29.85,NNE,17,28.0,31.0,-999,-99.99,,,-99.99,,2013-02-11 23:32:00,
2013-02-11 17:42:00,62.0,-99.9,29.86,NNE,14,26.0,31.0,-999,-99.99,,,-99.99,,2013-02-11 23:42:00,
2013-02-11 17:53:00,61.0,-99.9,29.86,NNE,13,29.0,32.0,-999,-99.99,,,-99.99,,2013-02-11 23:53:00,
2013-02-11 18:02:00,61.0,-99.9,29.86,NNE,22,26.0,33.0,-999,-99.99,,,-99.99,,2013-02-12 00:02:00,
2013-02-11 18:12:00,62.0,-99.9,29.87,NNE,22,28.0,32.0,-999,-99.99,,,-99.99,,2013-02-12 00:12:00,
2013-02-11 18:22:00,62.0,-99.9,29.86,NNE,19,30.0,34.0,-999,-99.99,,,-99.99,,2013-02-12 00:22:00,
2013-02-11 18:32:00,62.0,-99.9,29.86,NNE,21,25.0,32.0,-999,-99.99,,,-99.99,,2013-02-12 00:32:00,
2013-02-11 18:43:00,62.0,-99.9,29.86,NNE,19,29.0,35.0,-999,-99.99,,,-99.99,,2013-02-12 00:43:00,
2013-02-11 18:52:00,62.0,-99.9,29.87,NNE,20,26.0,30.0,-999,-99.99,,,-99.99,,2013-02-12 00:52:00,
2013-02-11 19:02:00,62.0,-99.9,29.87,NNE,15,26.0,32.0,-999,-99.99,,,-99.99,,2013-02-12 01:02:00,
2013-02-11 19:12:00,62.0,-99.9,29.87,NNE,18,27.0,30.0,-999,-99.99,,,-99.99,,2013-02-12 01:12:00,
2013-02-11 19:22:00,62.0,-99.9,29.87,NNE,19,27.0,30.0,-999,-99.99,,,-99.99,,2013-02-12 01:22:00,
2013-02-11 19:32:00,62.0,-99.9,29.87,NNE,21,27.0,30.0,-999,-99.99,,,-99.99,,2013-02-12 01:32:00,
2013-02-11 19:42:00,62.0,-99.9,29.87,NNE,21,26.0,28.0,-999,-99.99,,,-99.99,,2013-02-12 01:42:00,
2013-02-11 19:52:00,62.0,-99.9,29.87,NNE,17,24.0,28.0,-999,-99.99,,,-99.99,,2013-02-12 01:52:00,
2013-02-11 20:02:00,61.0,-99.9,29.88,NNE,24,25.0,29.0,-999,-99.99,,,-99.99,,2013-02-12 02:02:00,
2013-02-11 20:12:00,61.0,-99.9,29.88,NNE,24,27.0,31.0,-999,-99.99,,,-99.99,,2013-02-12 02:12:00,
2013-02-11 20:22:00,61.0,-99.9,29.88,NNE,27,28.0,32.0,-999,-99.99,,,-99.99,,2013-02-12 02:22:00,
2013-02-11 20:32:00,61.0,-99.9,29.88,NNE,27,26.0,30.0,-999,-99.99,,,-99.99,,2013-02-12 02:32:00,
2013-02-11 20:42:00,61.0,-99.9,29.87,NNE,19,29.0,33.0,-999,-99.99,,,-99.99,,2013-02-12 02:42:00,
2013-02-11 20:53:00,61.0,-99.9,29.88,NNE,17,28.0,31.0,-999,-99.99,,,-99.99,,2013-02-12 02:53:00,
2013-02-11 21:02:00,60.0,-99.9,29.88,NNE,21,28.0,31.0,-999,-99.99,,,-99.99,,2013-02-12 03:02:00,
2013-02-11 21:11:00,60.0,-99.9,29.88,NNE,25,25.0,30.0,-999,-99.99,,,-99.99,,2013-02-12 03:11:00,
2013-02-11 21:21:00,60.0,-99.9,29.88,NNE,22,26.0,30.0,-999,-99.99,,,-99.99,,2013-02-12 03:21:00,
2013-02-11 21:32:00,60.0,-99.9,29.88,NNE,26,26.0,30.0,-999,-99.99,,,-99.99,,2013-02-12 03:32:00,
2013-02-11 21:42:00,60.0,-99.9,29.89,NNE,28,27.0,31.0,-999,-99.99,,,-99.99,,2013-02-12 03:42:00,
2013-02-11 21:52:00,60.0,-99.9,29.89,NNE,22,26.0,30.0,-999,-99.99,,,-99.99,,2013-02-12 03:52:00,
2013-02-11 22:01:00,60.0,-99.9,29.90,NNE,23,25.0,28.0,-999,-99.99,,,-99.99,,2013-02-12 04:01:00,
2013-02-11 22:11:00,60.0,-99.9,29.90,NNE,23,24.0,28.0,-999,-99.99,,,-99.99,,2013-02-12 04:11:00,
2013-02-11 22:21:00,60.0,-99.9,29.90,NNE,24,24.0,26.0,-999,-99.99,,,-99.99,,2013-02-12 04:21:00,
2013-02-11 22:32:00,60.0,-99.9,29.90,NNE,19,23.0,27.0,-999,-99.99,,,-99.99,,2013-02-12 04:32:00,
2013-02-11 22:42:00,60.0,-99.9,29.91,NNE,25,22.0,28.0,-999,-99.99,,,-99.99,,2013-02-12 04:42:00,
2013-02-11 22:52:00,60.0,-99.9,29.91,NNE,18,23.0,28.0,-999,-99.99,,,-99.99,,2013-02-12 04:52:00,
2013-02-11 23:02:00,60.0,-99.9,29.90,NNE,22,24.0,28.0,-999,-99.99,,,-99.99,,2013-02-12 05:02:00,
2013-02-11 23:11:00,60.0,-99.9,29.90,NNE,25,26.0,28.0,-999,-99.99,,,-99.99,,2013-02-12 05:11:00,
2013-02-11 23:22:00,60.0,-99.9,29.90,NNE,27,23.0,25.0,-999,-99.99,,,-99.99,,2013-02-12 05:22:00,
2013-02-11 23:32:00,60.0,-99.9,29.89,NE,34,22.0,26.0,-999,-99.99,,,-99.99,,2013-02-12 05:32:00,
2013-02-11 23:42:00,60.0,-99.9,29.89,NNE,25,22.0,26.0,-999,-99.99,,,-99.99,,2013-02-12 05:42:00,
2013-02-11 23:52:00,60.0,-99.9,29.89,NNE,27,21.0,27.0,-999,-99.99,,,-99.99,,2013-02-12 05:52:00,